Weather Roundup
Issued by NWS

Home | Current Version | Previous Version | Text Only | Print | Product List | Glossary On
Versions: 1 2 3 4 5 6 7 8 9 10 11 12 13 14 15 16 17 18 19 20 21 22 23 24 25 26 27 28 29 30 31 32 33 34 35 36 37 38 39 40 41 42 43 44 45 46 47 48 49 50
000
NZUS93 KARX 210010
HRRWXR

CURRENT HOURLY OBSERVATIONS ACROSS
MUCH OF THE UPPER MISSISSIPPI VALLEY
NATIONAL WEATHER SERVICE LA CROSSE WI
600 PM CST TUE FEB 20 2018


...SOUTHEAST MINNESOTA...


CITY           SKY/WX    TMP DP  RH WIND       PRES   REMARKS
ROCHESTER      FLURRIES  15  11  83 W18       30.11R WCI  -2
ROCHESTER/MAYO CLOUDY    15  10  79 W15G24    30.12R WCI   0
WINONA         CLOUDY    21  16  79 W13       30.12R WCI   9
AUSTIN         CLOUDY    14   9  79 NW13      30.14R WCI   0
ALBERT LEA     MOCLDY    12   7  79 NW7       30.17R WCI   2
DODGE CENTER   FAIR      12   7  79 W9        30.12R WCI   0
PRESTON        CLOUDY    16  12  84 NW10      30.12R WCI   3
OWATONNA       FLURRIES  12   7  79 CALM      30.16R
FARIBAULT      LGT SNOW  12   9  85 W8        30.18R WCI   1
$$

...ELSEWHERE IN MINNESOTA...


CITY           SKY/WX    TMP DP  RH WIND       PRES   REMARKS
MINNEAPOLIS    FAIR      18   9  68 W13       30.15R WCI   5
INTNL FALLS    MOCLDY     9   3  77 W7        30.03R WCI  -2
DULUTH         MOCLDY    14   5  67 NW12      30.01R WCI   0
RED WING       MOCLDY    19  10  68 W12G17    30.14R WCI   7
REDWOOD FALLS  CLOUDY    10   4  76 NW10      30.23R WCI  -4
MANKATO        MOCLDY    12   6  77 NW22      30.20R WCI  -7
WORTHINGTON    FAIR       9   4  80 NW16      30.22R WCI  -8
FAIRMONT       FAIR      11   6  81 NW17      30.22R WCI  -6
$$

...SOUTHWEST WISCONSIN...


CITY           SKY/WX    TMP DP  RH WIND       PRES   REMARKS
LA CROSSE      CLOUDY    24  18  77 W15       30.11R WCI  11
PRAIRIE DU CHI CLOUDY    26  19  73 W16       30.12R WCI  14
BOSCOBEL       CLOUDY    28  20  71 W8        30.10R WCI  20
LONE ROCK      CLOUDY    29  24  82 W17       30.07R WCI  17
PLATTEVILLE    CLOUDY    28  25  89 W15       30.08R WCI  16
FORT MC COY    CLOUDY    23  21  91 W9        30.09R WCI  13
CAMP DOUGLAS   CLOUDY    25  23  93 W13       30.04R WCI  13
MAUSTON-NEW LI CLOUDY    27  23  85 W13G18    30.04R WCI  16
VIROQUA        CLOUDY    24  23  98 W7        30.05R WCI  15
WIS DELLS      CLOUDY    28  24  84 W9        30.03R WCI  19
$$

...ELSEWHERE IN WISCONSIN...


CITY           SKY/WX    TMP DP  RH WIND       PRES   REMARKS
MILWAUKEE      CLOUDY    39  36  89 W13       29.99R WCI  31
MADISON        CLOUDY    32  27  81 W8        30.04R WCI  25
GREEN BAY      CLOUDY    33  28  81 W13       29.96R WCI  24
EAU CLAIRE     CLOUDY    20  13  74 W14G23    30.08R WCI   7
BLACK RVR FLS  CLOUDY    24  21  89 W10G18    30.07R WCI  13
MEDFORD        CLOUDY    21  18  90 W13G20    29.98R WCI   8
WAUSAU         CLOUDY    23  20  88 W14       29.96R WCI  11
WIS RAPIDS     CLOUDY    24  20  84 W9        30.02R WCI  14
MARSHFIELD     CLOUDY    22  18  85 NW16G23   29.98R WCI   8
RICE LAKE      MOCLDY    18  12  80 W7        30.09R WCI   8
$$

...NORTHEAST IOWA...


CITY           SKY/WX    TMP DP  RH WIND       PRES   REMARKS
WATERLOO       CLOUDY    20  15  81 NW17      30.18R WCI   5
DUBUQUE        CLOUDY    27  21  78 NW14      30.09R WCI  16
DECORAH        CLOUDY    21  18  86 NW9G17    30.10R WCI  11
MASON CITY     FAIR      14   8  77 NW21      30.19R WCI  -4
CHARLES CITY   FLURRIES  18  18 100 NW20      30.17R WCI   1
OELWEIN        CLOUDY    21  21 100 W22       30.15R WCI   5
$$

...ELSEWHERE IN IOWA...


CITY           SKY/WX    TMP DP  RH WIND       PRES   REMARKS
DES MOINES     FLURRIES  20  14  77 NW17      30.23R WCI   5
IOWA CITY      MOCLDY    28  19  69 NW17      30.18R WCI  16
FORT DODGE     FLURRIES  15   9  76 NW9G20    30.23R WCI   3
MARSHALLTOWN   CLOUDY    20  16  84 NW20      30.19R WCI   4
CEDAR RAPIDS   CLOUDY    25  20  81 NW21G28   30.15R WCI  11
$$

...NORTHERN ILLINOIS...


CITY           SKY/WX    TMP DP  RH WIND       PRES   REMARKS
CHICAGO-OHARE  LGT RAIN  41  38  89 W15       29.99R
CHICAGO-MIDWAY LGT RAIN  46  45  96 W14       29.98R
MOLINE         CLOUDY    31  26  82 NW14      30.12R WCI  21
ROCKFORD       CLOUDY    33  30  88 NW10      30.06R WCI  25
PEORIA         LGT RAIN  36  34  92 N10G21    30.06S WCI  28
$$

NOTE: "FAIR" INDICATES FEW OR NO CLOUDS BELOW 12,000 FEET WITH NO
SIGNIFICANT WEATHER AND/OR OBSTRUCTIONS TO VISIBILITY. WIND
SPEEDS ARE IN MILES-PER-HOUR.




USA.gov is the U.S. government's official web portal to all federal, state and local government web resources and services.